Weather History for KAEG - June, 2013

Change the Weather History Date:

Sunday, June 16, 2013

  Actual Average Record
Temperature  
Mean Temperature 73 °F -  
Max Temperature 87 °F - - ()
Min Temperature 59 °F - - ()
Cooling Degree Days 8    
Growing Degree Days 23 (Base 50)    
Moisture  
Dew Point 39 °F    
Average Humidity 33    
Maximum Humidity 68    
Minimum Humidity 12    
Precipitation  
Precipitation 0.00 in - - ()
Sea Level Pressure  
Sea Level Pressure 30.19 in    
Wind  
Wind Speed 13 mph (West)    
Max Wind Speed 46 mph    
Max Gust Speed 62 mph    
Visibility 10 miles    
Events      
T = Trace of Precipitation, MM = Missing Value Source: NWS Daily Summary

Daily Weather History Graph

Daily Weather History Graph

Search for Another Location

Airport or City:

Trip Planner

Search our weather history database for the weather conditions in past years. The results will help you decide how hot, cold, wet, or windy it might be!

Date:

Astronomy

Jun. 16, 2013 Rise Set
Actual Time 5:52 AM MDT 8:23 PM MDT
Civil Twilight 5:22 AM MDT 8:53 PM MDT
Nautical Twilight 4:45 AM MDT 9:30 PM MDT
Astronomical Twilight 4:05 AM MDT 10:10 PM MDT
Moon 1:15 PM MDT (6/16) 12:44 AM MDT (6/16)
Length of Visible Light 15h 30m
Length of Day
14h 31m
Waxing Crescent, 50% of the Moon is Illuminated
Jun 16
Waxing Crescent
Jun 23
Full
Jun 29
Last Quarter
Jul 8
New
Jul 15
First Quarter

Hourly Weather History & Observations

Time (MDT) Temp. Dew Point Humidity Pressure Visibility Wind Dir Wind Speed Gust Speed Precip Events Conditions
12:15 AM 71.6 °F 37.4 °F 29% 30.22 in 10.0 mi NNW 17.3 mph - N/A   Unknown
12:35 AM 71.6 °F 37.4 °F 29% 30.22 in 10.0 mi NW 16.1 mph 21.9 mph N/A   Unknown
12:55 AM 71.6 °F 37.4 °F 29% 30.22 in 10.0 mi NW 16.1 mph 21.9 mph N/A   Unknown
1:15 AM 71.6 °F 39.2 °F 31% 30.22 in 10.0 mi NW 27.6 mph 32.2 mph N/A   Unknown
1:35 AM 69.8 °F 39.2 °F 33% 30.21 in 10.0 mi NNW 21.9 mph 26.5 mph N/A   Unknown
1:55 AM 69.8 °F 39.2 °F 33% 30.21 in 10.0 mi NW 16.1 mph - N/A   Unknown
2:15 AM 69.8 °F 39.2 °F 33% 30.22 in 10.0 mi NW 12.7 mph - N/A   Unknown
2:35 AM 68.0 °F 39.2 °F 35% 30.20 in 10.0 mi NNW 4.6 mph - N/A   Unknown
2:55 AM 68.0 °F 37.4 °F 33% 30.17 in 10.0 mi SSE 8.1 mph - N/A   Unknown
3:15 AM 68.0 °F 37.4 °F 33% 30.17 in 10.0 mi SE 9.2 mph - N/A   Unknown
3:35 AM 66.2 °F 39.2 °F 37% 30.18 in 10.0 mi South 5.8 mph - N/A   Unknown
3:55 AM 66.2 °F 39.2 °F 37% 30.18 in 10.0 mi SSW 6.9 mph - N/A   Unknown
4:15 AM 66.2 °F 39.2 °F 37% 30.18 in 10.0 mi West 8.1 mph - N/A   Unknown
4:35 AM 64.4 °F 37.4 °F 37% 30.18 in 10.0 mi West 6.9 mph - N/A   Unknown
4:55 AM 64.4 °F 37.4 °F 37% 30.19 in 10.0 mi West 4.6 mph - N/A   Unknown
5:15 AM 60.8 °F 35.6 °F 39% 30.20 in 10.0 mi West 4.6 mph - N/A   Unknown
5:35 AM 59.0 °F 35.6 °F 42% 30.21 in 10.0 mi WNW 6.9 mph - N/A   Unknown
5:50 AM 59.0 °F 35.6 °F 42% 30.21 in 10.0 mi West 8.1 mph - N/A   Partly Cloudy
6:50 AM 64.4 °F 37.4 °F 37% 30.22 in 10.0 mi WSW 6.9 mph - N/A   Partly Cloudy
7:50 AM 69.8 °F 39.2 °F 33% 30.24 in 10.0 mi Calm Calm - N/A   Partly Cloudy
8:50 AM 73.4 °F 39.2 °F 29% 30.24 in 10.0 mi Variable 5.8 mph - N/A   Clear
9:50 AM 75.2 °F 39.2 °F 27% 30.24 in 10.0 mi Variable 5.8 mph - N/A   Partly Cloudy
10:50 AM 80.6 °F 37.4 °F 21% 30.23 in 10.0 mi Variable 5.8 mph - N/A   Partly Cloudy
11:50 AM 82.4 °F 37.4 °F 20% 30.22 in 10.0 mi Variable 6.9 mph - N/A   Partly Cloudy
12:50 PM 86.0 °F 33.8 °F 15% 30.20 in 10.0 mi Variable 6.9 mph - N/A   Scattered Clouds
1:50 PM 86.0 °F 32.0 °F 14% 30.18 in 10.0 mi West 5.8 mph - N/A   Mostly Cloudy
2:50 PM 87.8 °F 32.0 °F 14% 30.14 in 10.0 mi SE 8.1 mph 18.4 mph N/A   Mostly Cloudy
3:50 PM 87.8 °F 28.4 °F 12% 30.12 in 10.0 mi SSW 10.4 mph 20.7 mph N/A   Mostly Cloudy
4:00 PM 87.8 °F 28.4 °F 12% 30.13 in 1.0 mi WSW 46.0 mph 62.1 mph N/A   Widespread Dust
4:22 PM 84.2 °F 35.6 °F 18% 30.16 in 10.0 mi WSW 27.6 mph 39.1 mph N/A   Mostly Cloudy
4:50 PM 84.2 °F 32.0 °F 15% 30.15 in 10.0 mi SSW 20.7 mph 28.8 mph N/A   Mostly Cloudy
5:50 PM 80.6 °F 33.8 °F 18% 30.17 in 10.0 mi West 27.6 mph 35.7 mph N/A   Mostly Cloudy
6:50 PM 84.2 °F 32.0 °F 15% 30.14 in 10.0 mi WSW 12.7 mph - N/A   Mostly Cloudy
7:50 PM 80.6 °F 33.8 °F 18% 30.16 in 10.0 mi West 9.2 mph - N/A   Mostly Cloudy
8:50 PM 71.6 °F 48.2 °F 43% 30.19 in 10.0 mi WNW 10.4 mph - N/A   Mostly Cloudy
9:50 PM 69.8 °F 51.8 °F 53% 30.18 in 10.0 mi North 4.6 mph - N/A   Clear
10:15 PM 68.0 °F 50.0 °F 52% 30.18 in 10.0 mi West 9.2 mph - N/A   Unknown
10:35 PM 66.2 °F 50.0 °F 56% 30.17 in 10.0 mi WNW 9.2 mph - N/A   Unknown
10:55 PM 64.4 °F 53.6 °F 68% 30.17 in 10.0 mi SW 6.9 mph - N/A   Unknown
11:15 PM 66.2 °F 50.0 °F 56% 30.17 in 10.0 mi WNW 3.5 mph - N/A   Unknown
11:35 PM 64.4 °F 48.2 °F 56% 30.18 in 10.0 mi West 10.4 mph - N/A   Unknown
11:55 PM 64.4 °F 50.0 °F 59% 30.16 in 10.0 mi Calm Calm - N/A   Unknown